EW2835 Weather Reports


time (UTC)temp
F
wind
direction
speed
knots
gust
knots
rain 1hr
in
rain 24hr
in
rain mn
in
humidity
%
barometer
mb
20260906084520 62 292 2.6 8.7 0.00 0.06 0.00 73 1025.9
20260906083019 63 275 1.7 8.7 0.00 0.06 0.00 73 1025.6
20260906081521 61 278 1.7 7.8 0.00 0.06 0.00 77 1025.6
20260906080004 62 177 0.0 5.2 0.00 0.06 0.00 76 1025.4
20260906074601 61 255 0.9 7.0 0.00 0.06 0.00 78 1025.3
20260906073057 60 292 0.0 5.2 0.00 0.06 0.00 79 1025.0
20260906071604 59 252 1.7 8.7 0.00 0.06 0.00 80 1024.9
20260906070049 59 290 0.9 5.2 0.00 0.06 0.00 82 1024.8
20260906064545 58 282 2.6 8.7 0.00 0.06 0.00 83 1024.7
20260906063041 57 290 1.7 6.1 0.00 0.06 0.00 86 1024.5
20260906061538 56 269 1.7 7.8 0.00 0.06 0.00 88 1024.5
20260906060032 55 309 0.9 5.2 0.00 0.06 0.00 90 1024.2
20260906054528 54 265 0.9 6.1 0.00 0.06 0.00 91 1024.0
20260906053029 54 275 0.9 7.0 0.00 0.06 0.00 92 1023.9
20260906051530 53 252 0.9 4.3 0.00 0.06 0.00 94 1023.7
20260906050045 52 302 0.9 6.1 0.00 0.06 0.00 94 1023.5
20260906044517 52 289 0.0 4.3 0.00 0.06 0.00 93 1023.5
20260906043015 52 250 0.9 3.5 0.00 0.06 0.00 92 1023.4
20260906041516 52 253 0.0 2.6 0.00 0.06 0.00 91 1023.2
20260906040009 53 260 0.0 1.7 0.00 0.06 0.00 91 1023.2
20260906034508 53 271 0.0 2.6 0.00 0.06 0.00 91 1023.0
20260906033006 54 304 0.9 6.1 0.00 0.06 0.00 91 1023.0
20260906031504 54 273 0.0 5.2 0.00 0.06 0.00 91 1022.9
20260906030002 54 276 0.9 3.5 0.00 0.06 0.00 90 1022.8
20260906024603 55 293 0.0 10.4 0.00 0.06 0.00 90 1022.7
20260906023119 55 275 0.9 3.5 0.00 0.06 0.00 90 1022.6
20260906021611 55 263 0.0 4.3 0.00 0.06 0.00 90 1022.7
20260906020100 55 265 0.0 4.3 0.00 0.06 0.00 90 1022.5
20260906014557 55 283 0.0 4.3 0.00 0.06 0.00 90 1022.4
20260906013052 54 231 0.0 4.3 0.00 0.06 0.00 90 1022.1
20260906011550 55 287 0.9 3.5 0.00 0.06 0.00 90 1021.9
20260906010047 55 267 0.0 2.6 0.00 0.06 0.00 90 1021.8
20260906004545 55 298 0.9 4.3 0.00 0.06 0.00 89 1021.7
20260906003050 55 235 0.9 6.1 0.00 0.06 0.00 89 1021.7
20260906001541 56 317 0.9 3.5 0.00 0.06 0.00 88 1021.6
20260906000140 56 277 0.0 7.8 0.00 0.06 0.00 88 1021.5
20260905234548 56 302 1.7 4.3 0.00 0.06 0.00 87 1021.5
20260905233037 56 259 0.0 5.2 0.00 0.06 0.00 86 1021.5
20260905231533 57 254 0.9 3.5 0.00 0.06 0.00 85 1021.3
20260905230031 57 264 1.7 6.1 0.00 0.06 0.00 84 1021.2
20260905224529 57 295 1.7 6.1 0.00 0.06 0.00 84 1021.1
20260905223029 57 244 0.9 5.2 0.00 0.06 0.00 85 1020.9
20260905221526 57 204 0.9 6.1 0.00 0.06 0.00 85 1020.9
20260905220027 57 294 1.7 4.3 0.00 0.06 0.00 86 1020.8
20260905214521 56 235 1.7 5.2 0.00 0.06 0.06 86 1020.7
20260905213022 57 278 0.0 4.3 0.00 0.06 0.06 86 1020.6
20260905211516 56 273 2.6 7.0 0.00 0.06 0.06 86 1020.3
20260905210015 57 237 0.9 5.2 0.00 0.06 0.06 85 1020.3
20260905204514 57 233 0.0 2.6 0.00 0.06 0.06 84 1020.3
20260905203014 57 265 0.9 7.0 0.00 0.06 0.06 84 1020.1
20260905201511 57 282 2.6 9.6 0.00 0.06 0.06 85 1019.9
20260905200010 57 318 0.0 3.5 0.00 0.06 0.06 85 1019.8
20260905194509 58 279 0.0 1.7 0.00 0.06 0.06 83 1019.6
20260905193011 58 269 0.9 4.3 0.00 0.06 0.06 83 1019.5
20260905191506 58 252 1.7 7.0 0.00 0.06 0.06 82 1019.3
20260905190007 58 282 1.7 7.0 0.00 0.06 0.06 83 1019.1
20260905184505 58 266 1.7 8.7 0.00 0.09 0.06 85 1018.9
20260905183101 57 267 2.6 9.6 0.00 0.09 0.06 86 1018.8
20260905181557 58 273 0.9 8.7 0.00 0.09 0.06 87 1018.6
20260905180054 58 252 0.0 5.2 0.00 0.09 0.06 89 1018.3
20260905174557 58 246 0.9 6.1 0.00 0.15 0.06 90 1018.0
20260905173100 59 260 0.0 3.5 0.00 0.15 0.06 92 1017.8
20260905171548 59 173 0.0 3.5 0.00 0.15 0.06 92 1017.8
20260905170049 59 287 0.0 2.6 0.00 0.15 0.06 92 1017.6
20260905164546 59 253 0.9 3.5 0.00 0.15 0.06 93 1017.4
20260905163051 60 256 0.0 6.1 0.00 0.15 0.06 93 1017.3
20260905160036 59 315 0.0 3.5 0.00 0.15 0.06 93 1016.9
20260905154517 59 267 0.0 4.3 0.02 0.15 0.06 93 1016.8
20260905153016 59 297 0.9 6.1 0.05 0.15 0.06 92 1016.7
20260905151515 58 244 2.6 6.1 0.05 0.15 0.06 91 1016.6
20260905150023 58 302 3.5 13.0 0.05 0.15 0.06 87 1016.7
20260905144536 61 265 5.2 16.5 0.02 0.39 0.04 80 1017.0
20260905143019 64 252 6.1 18.2 0.00 0.37 0.02 72 1016.6
20260905141510 66 186 4.3 13.0 0.01 0.37 0.02 69 1015.4
20260905140008 66 281 2.6 8.7 0.01 0.37 0.02 77 1015.2
20260905134513 67 266 1.7 9.6 0.01 0.37 0.02 73 1015.2
20260905133009 66 244 2.6 7.8 0.01 0.37 0.02 76 1015.3
20260905131507 67 297 3.5 12.2 0.00 0.36 0.01 70 1015.5
20260905130004 71 192 1.7 12.2 0.00 0.36 0.01 62 1014.9
20260905124502 69 265 2.6 7.0 0.00 0.36 0.01 67 1014.8
20260905123002 68 308 2.6 7.0 0.00 0.36 0.01 67 1015.0
20260905121501 66 249 2.6 8.7 0.00 0.36 0.01 69 1015.2
20260905120101 68 275 2.6 14.8 0.00 0.36 0.01 66 1015.2
20260905120002 68 167 2.6 14.8 0.00 0.36 0.01 66 1015.3
20260905114630 69 198 1.7 7.8 0.00 0.36 0.01 67 1015.1
20260905113100 69 123 3.5 12.2 0.00 0.36 0.01 64 1015.3
20260905111557 69 186 1.7 16.5 0.00 0.36 0.01 66 1015.1
20260905110054 71 223 3.5 17.4 0.00 0.36 0.01 62 1014.9
20260905104554 70 121 2.6 9.6 0.00 0.36 0.01 62 1015.0
20260905103053 70 318 1.7 10.4 0.00 0.36 0.01 63 1015.1
20260905101548 66 211 3.5 7.8 0.00 0.36 0.01 70 1015.3
20260905100106 66 81 0.0 8.7 0.00 0.36 0.01 76 1015.1
20260905094550 67 306 2.6 7.0 0.00 0.36 0.01 69 1015.2
20260905093044 67 23 2.6 10.4 0.00 0.36 0.01 68 1015.3
20260905091555 66 239 2.6 9.6 0.00 0.36 0.01 70 1015.1
20260905090040 68 263 2.6 8.7 0.00 0.36 0.01 69 1015.1